SPACEBEE-4 (43139 NORAD) Tracking and Keplerian Element Data

This shows tracking and keplerian element data for the satellite.

Feedback or suggestion? Click here.




ElementValue
Catalog43139
NameSPACEBEE-4
Epoch Orbit426
Epoch Day40.40137584
Epoch Year2018
RAAN102.6609
Inclination97.5518
Eccentricity0.0009623
Argument of Perigee180.2988
Mean Anonmoly179.8244
Mean Motion15.22519934
Decay Rate2.264E-05
L11 43139U 18004AE 18040.40137584 .00002264 00000-0 10069-3 0 9991
L22 43139 97.5518 102.6609 0009623 180.2988 179.8244 15.22519934 4265

Live tracking and technical data element details for SPACEBEE-4 (NORAD 43139). SPACEBEE-4 can be tracked NOW for your location showing map with azimuth and elevation plus other details from your city location.

Track the satellite on the map from your city or location and see movement details for azimuth, elevation, latitude, longitude, range, height, and movement on the map or in text.







IsCatalogInMostPopularTable: catalog: 43139, numindb: 123
Update: records affected: 1



GetName: 43139 SPACEBEE-4

Hit Count: updated at: Fri, 16 Nov 2018 02:54:15 GMT